{"data":{"norad_id":54165,"intl_designator":"2022-141J","name":"STARLINK-5279","alt_names":[],"object_type":"PAYLOAD","status":"ACTIVE","operator":null,"country":"US","launch_date":"2022-10-28","launch_site_code":"AFWTR","launch_vehicle":null,"mission":null,"orbit_class":"UNKNOWN","rcs_meters":null,"size_class":null,"mass_kg":null,"dimensions":null,"purposes":["comms"],"wikipedia_slug":null,"has_3d_model":false,"image_url":null,"decayed_at":null,"tle_current":{"epoch":"2026-09-20T22:00:03.000096Z","epoch_age_seconds":54499,"freshness":"FRESH","line1":"1 54165U 22141J   26263.91670139  .00035910  00000+0  11023-2 0  9992","line2":"2 54165  53.1614 215.5259 0001295  89.7390 200.6468 15.33425059  5744","mean_motion":15.33425059,"eccentricity":0.0001295,"inclination_deg":53.1614,"raan_deg":215.5259,"arg_perigee_deg":89.739,"mean_anomaly_deg":200.6468,"bstar":0.0011023,"rev_number":574,"period_min":93.907425833974,"perigee_km":464.71624124143,"apogee_km":466.48876977336,"semimajor_km":6843.7395055074,"source":"CELESTRAK","updated_at":"2026-09-21T09:00:33.089067Z"}}}